Time,TemperatureF,DewpointF,PressureIn,WindDirection,WindDirectionDegrees,WindSpeedMPH,WindSpeedGustMPH,Humidity,HourlyPrecipIn,Conditions,Clouds,dailyrainin,SoftwareType,DateUTC
2013-04-03 00:00:00,37.6,16.6,30.24,NNE,23,0.0,2.4,42,0.00,,,0.00,WX3IN1Plus v1.30,2013-04-03 04:00:00,
2013-04-03 00:05:00,37.2,16.2,30.24,NNE,23,0.0,0.0,42,0.00,,,0.00,WX3IN1Plus v1.30,2013-04-03 04:05:00,
2013-04-03 00:10:00,37.1,16.2,30.24,NNE,23,0.0,0.0,42,0.00,,,0.00,WX3IN1Plus v1.30,2013-04-03 04:10:00,
2013-04-03 00:15:00,37.0,16.6,30.24,NNE,23,0.0,0.0,43,0.00,,,0.00,WX3IN1Plus v1.30,2013-04-03 04:15:00,
2013-04-03 00:21:00,36.8,16.4,30.24,NNE,23,0.0,0.0,43,0.00,,,0.00,WX3IN1Plus v1.30,2013-04-03 04:21:00,
2013-04-03 00:26:00,36.6,16.2,30.24,NNE,23,0.0,0.0,43,0.00,,,0.00,WX3IN1Plus v1.30,2013-04-03 04:26:00,
2013-04-03 00:31:00,36.2,16.4,30.25,NNE,23,0.0,0.0,44,0.00,,,0.00,WX3IN1Plus v1.30,2013-04-03 04:31:00,
2013-04-03 00:36:00,36.1,16.2,30.25,NNE,23,0.0,0.0,44,0.00,,,0.00,WX3IN1Plus v1.30,2013-04-03 04:36:00,
2013-04-03 00:41:00,36.0,16.2,30.25,NNE,23,0.0,0.0,44,0.00,,,0.00,WX3IN1Plus v1.30,2013-04-03 04:41:00,
2013-04-03 00:46:00,35.6,16.4,30.25,NNE,23,0.0,0.0,45,0.00,,,0.00,WX3IN1Plus v1.30,2013-04-03 04:46:00,
2013-04-03 00:51:00,35.5,16.2,30.25,NNE,23,0.0,0.0,45,0.00,,,0.00,WX3IN1Plus v1.30,2013-04-03 04:51:00,
2013-04-03 00:57:00,35.4,15.8,30.25,NNE,23,0.0,0.0,45,0.00,,,0.00,WX3IN1Plus v1.30,2013-04-03 04:57:00,
2013-04-03 01:02:00,35.2,16.4,30.25,NNE,23,0.0,0.0,46,0.00,,,0.00,WX3IN1Plus v1.30,2013-04-03 05:02:00,
2013-04-03 01:07:00,35.2,16.4,30.25,NNE,23,0.0,0.0,46,0.00,,,0.00,WX3IN1Plus v1.30,2013-04-03 05:07:00,
2013-04-03 01:12:00,35.3,16.4,30.26,NNE,23,0.0,0.0,46,0.00,,,0.00,WX3IN1Plus v1.30,2013-04-03 05:12:00,
2013-04-03 01:17:00,35.2,16.4,30.26,NNE,23,0.0,0.0,46,0.00,,,0.00,WX3IN1Plus v1.30,2013-04-03 05:17:00,
2013-04-03 01:22:00,35.0,16.2,30.26,NNE,23,0.0,0.0,46,0.00,,,0.00,WX3IN1Plus v1.30,2013-04-03 05:22:00,
2013-04-03 01:27:00,34.9,16.2,30.26,NNE,23,0.0,0.0,46,0.00,,,0.00,WX3IN1Plus v1.30,2013-04-03 05:27:00,
2013-04-03 01:32:00,34.9,16.6,30.26,NW,313,0.0,1.4,47,0.00,,,0.00,WX3IN1Plus v1.30,2013-04-03 05:32:00,
2013-04-03 01:37:00,34.8,16.4,30.26,NW,313,0.0,1.4,47,0.00,,,0.00,WX3IN1Plus v1.30,2013-04-03 05:37:00,
2013-04-03 01:42:00,34.7,16.4,30.26,NW,313,0.0,0.0,47,0.00,,,0.00,WX3IN1Plus v1.30,2013-04-03 05:42:00,
2013-04-03 01:47:00,34.5,16.2,30.27,NW,313,0.0,0.0,47,0.00,,,0.00,WX3IN1Plus v1.30,2013-04-03 05:47:00,
2013-04-03 01:52:00,34.3,16.6,30.27,NW,313,0.0,0.0,48,0.00,,,0.00,WX3IN1Plus v1.30,2013-04-03 05:52:00,
2013-04-03 01:57:00,34.2,16.6,30.27,NW,313,0.0,0.0,48,0.00,,,0.00,WX3IN1Plus v1.30,2013-04-03 05:57:00,
2013-04-03 02:02:00,33.9,16.7,30.27,NW,313,0.0,0.0,49,0.00,,,0.00,WX3IN1Plus v1.30,2013-04-03 06:02:00,
2013-04-03 02:07:00,33.7,16.6,30.26,NW,313,0.0,0.0,49,0.00,,,0.00,WX3IN1Plus v1.30,2013-04-03 06:07:00,
2013-04-03 02:12:00,33.1,16.6,30.26,NW,313,0.0,0.0,50,0.00,,,0.00,WX3IN1Plus v1.30,2013-04-03 06:12:00,
2013-04-03 02:17:00,32.8,16.6,30.26,NW,313,0.0,0.0,51,0.00,,,0.00,WX3IN1Plus v1.30,2013-04-03 06:17:00,
2013-04-03 02:22:00,32.5,16.4,30.26,NW,313,0.0,0.0,51,0.00,,,0.00,WX3IN1Plus v1.30,2013-04-03 06:22:00,
2013-04-03 02:28:00,32.0,16.6,30.26,NW,313,0.0,0.0,52,0.00,,,0.00,WX3IN1Plus v1.30,2013-04-03 06:28:00,
2013-04-03 02:33:00,31.7,17.1,30.27,NW,313,0.0,0.0,53,0.00,,,0.00,WX3IN1Plus v1.30,2013-04-03 06:33:00,
2013-04-03 02:38:00,31.3,16.7,30.27,NW,313,0.0,0.0,54,0.00,,,0.00,WX3IN1Plus v1.30,2013-04-03 06:38:00,
2013-04-03 02:43:00,30.8,16.7,30.27,NW,313,0.0,0.0,55,0.00,,,0.00,WX3IN1Plus v1.30,2013-04-03 06:43:00,
2013-04-03 02:48:00,30.4,17.1,30.27,NW,313,0.0,0.0,56,0.00,,,0.00,WX3IN1Plus v1.30,2013-04-03 06:48:00,
2013-04-03 02:53:00,30.3,17.3,30.27,NW,313,0.0,0.0,57,0.00,,,0.00,WX3IN1Plus v1.30,2013-04-03 06:53:00,
2013-04-03 02:58:00,30.1,17.1,30.27,NW,313,0.0,0.0,57,0.00,,,0.00,WX3IN1Plus v1.30,2013-04-03 06:58:00,
2013-04-03 03:03:00,29.8,17.3,30.27,NW,313,0.0,0.0,58,0.00,,,0.00,WX3IN1Plus v1.30,2013-04-03 07:03:00,
2013-04-03 03:08:00,29.6,17.1,30.27,NW,313,0.0,0.0,58,0.00,,,0.00,WX3IN1Plus v1.30,2013-04-03 07:08:00,
2013-04-03 03:13:00,29.5,17.1,30.27,NW,313,0.0,0.0,58,0.00,,,0.00,WX3IN1Plus v1.30,2013-04-03 07:13:00,
2013-04-03 03:18:00,29.4,16.7,30.27,NW,313,0.0,0.0,58,0.00,,,0.00,WX3IN1Plus v1.30,2013-04-03 07:18:00,
2013-04-03 03:23:00,29.1,16.6,30.27,NW,313,0.0,0.0,58,0.00,,,0.00,WX3IN1Plus v1.30,2013-04-03 07:23:00,
2013-04-03 03:28:00,29.0,16.6,30.27,NW,313,0.0,0.0,58,0.00,,,0.00,WX3IN1Plus v1.30,2013-04-03 07:28:00,
2013-04-03 03:33:00,28.8,16.4,30.27,NW,313,0.0,0.0,58,0.00,,,0.00,WX3IN1Plus v1.30,2013-04-03 07:33:00,
2013-04-03 03:38:00,28.8,16.4,30.27,NW,313,0.0,0.0,58,0.00,,,0.00,WX3IN1Plus v1.30,2013-04-03 07:38:00,
2013-04-03 03:43:00,28.5,16.4,30.27,NW,313,0.0,0.0,59,0.00,,,0.00,WX3IN1Plus v1.30,2013-04-03 07:43:00,
2013-04-03 03:48:00,28.3,16.6,30.27,NW,313,0.0,0.0,60,0.00,,,0.00,WX3IN1Plus v1.30,2013-04-03 07:48:00,
2013-04-03 03:53:00,28.3,16.6,30.27,NW,313,0.0,0.0,60,0.00,,,0.00,WX3IN1Plus v1.30,2013-04-03 07:53:00,
2013-04-03 03:58:00,28.2,16.4,30.27,NW,313,0.0,0.0,60,0.00,,,0.00,WX3IN1Plus v1.30,2013-04-03 07:58:00,
2013-04-03 04:04:00,28.0,16.2,30.28,NW,313,0.0,0.0,60,0.00,,,0.00,WX3IN1Plus v1.30,2013-04-03 08:04:00,
2013-04-03 04:09:00,28.1,16.4,30.28,NW,313,0.0,0.0,60,0.00,,,0.00,WX3IN1Plus v1.30,2013-04-03 08:09:00,
2013-04-03 04:14:00,28.0,16.2,30.28,NW,313,0.0,0.0,60,0.00,,,0.00,WX3IN1Plus v1.30,2013-04-03 08:14:00,
2013-04-03 04:19:00,27.9,16.6,30.28,NW,313,0.0,0.0,61,0.00,,,0.00,WX3IN1Plus v1.30,2013-04-03 08:19:00,
2013-04-03 04:24:00,27.9,16.6,30.28,NW,313,0.0,0.0,61,0.00,,,0.00,WX3IN1Plus v1.30,2013-04-03 08:24:00,
2013-04-03 04:29:00,27.7,16.6,30.28,NW,313,0.0,0.0,61,0.00,,,0.00,WX3IN1Plus v1.30,2013-04-03 08:29:00,
2013-04-03 04:34:00,27.6,16.4,30.28,NW,313,0.0,0.0,61,0.00,,,0.00,WX3IN1Plus v1.30,2013-04-03 08:34:00,
2013-04-03 04:39:00,27.6,16.6,30.28,NW,313,0.0,0.0,62,0.00,,,0.00,WX3IN1Plus v1.30,2013-04-03 08:39:00,
2013-04-03 04:44:00,27.5,16.4,30.28,NW,313,0.0,0.0,62,0.00,,,0.00,WX3IN1Plus v1.30,2013-04-03 08:44:00,
2013-04-03 04:49:00,27.4,16.4,30.28,NW,313,0.0,0.0,62,0.00,,,0.00,WX3IN1Plus v1.30,2013-04-03 08:49:00,
2013-04-03 04:54:00,27.2,16.2,30.28,NW,313,0.0,0.0,62,0.00,,,0.00,WX3IN1Plus v1.30,2013-04-03 08:54:00,
2013-04-03 04:59:00,27.2,16.2,30.28,NW,313,0.0,0.0,62,0.00,,,0.00,WX3IN1Plus v1.30,2013-04-03 08:59:00,
2013-04-03 05:04:00,27.3,16.2,30.28,NW,313,0.0,0.0,62,0.00,,,0.00,WX3IN1Plus v1.30,2013-04-03 09:04:00,
2013-04-03 05:09:00,27.2,16.6,30.28,NW,313,0.0,0.0,63,0.00,,,0.00,WX3IN1Plus v1.30,2013-04-03 09:09:00,
2013-04-03 05:14:00,27.2,16.6,30.28,NW,313,0.0,0.0,63,0.00,,,0.00,WX3IN1Plus v1.30,2013-04-03 09:14:00,
2013-04-03 05:19:00,27.1,16.6,30.28,NW,313,0.0,0.0,63,0.00,,,0.00,WX3IN1Plus v1.30,2013-04-03 09:19:00,
2013-04-03 05:24:00,27.2,16.6,30.29,NW,313,0.0,0.0,63,0.00,,,0.00,WX3IN1Plus v1.30,2013-04-03 09:24:00,
2013-04-03 05:29:00,27.3,16.6,30.28,NW,313,0.0,0.0,63,0.00,,,0.00,WX3IN1Plus v1.30,2013-04-03 09:29:00,
2013-04-03 05:34:00,27.2,16.6,30.29,NW,313,0.0,0.0,63,0.00,,,0.00,WX3IN1Plus v1.30,2013-04-03 09:34:00,
2013-04-03 05:39:00,27.1,16.6,30.29,NW,313,0.0,0.0,63,0.00,,,0.00,WX3IN1Plus v1.30,2013-04-03 09:39:00,
2013-04-03 05:44:00,26.9,16.6,30.29,NW,313,0.0,0.0,64,0.00,,,0.00,WX3IN1Plus v1.30,2013-04-03 09:44:00,
2013-04-03 05:49:00,26.7,16.4,30.29,NW,313,0.0,0.0,64,0.00,,,0.00,WX3IN1Plus v1.30,2013-04-03 09:49:00,
2013-04-03 05:54:00,26.8,17.1,30.29,NW,313,0.0,0.0,65,0.00,,,0.00,WX3IN1Plus v1.30,2013-04-03 09:54:00,
2013-04-03 05:59:00,26.7,16.7,30.29,NW,313,0.0,0.0,65,0.00,,,0.00,WX3IN1Plus v1.30,2013-04-03 09:59:00,
2013-04-03 06:04:00,26.5,16.7,30.29,NW,313,0.0,0.0,66,0.00,,,0.00,WX3IN1Plus v1.30,2013-04-03 10:04:00,
2013-04-03 06:09:00,26.5,17.3,30.29,NW,313,0.0,0.0,67,0.00,,,0.00,WX3IN1Plus v1.30,2013-04-03 10:09:00,
2013-04-03 06:14:00,26.6,17.3,30.29,NW,313,0.0,0.0,67,0.00,,,0.00,WX3IN1Plus v1.30,2013-04-03 10:14:00,
2013-04-03 06:19:00,26.7,17.8,30.30,NW,313,0.0,0.0,68,0.00,,,0.00,WX3IN1Plus v1.30,2013-04-03 10:19:00,
2013-04-03 06:24:00,26.6,17.5,30.30,NW,313,0.0,0.0,68,0.00,,,0.00,WX3IN1Plus v1.30,2013-04-03 10:24:00,
2013-04-03 06:29:00,26.8,18.0,30.30,NW,313,0.0,0.0,68,0.00,,,0.00,WX3IN1Plus v1.30,2013-04-03 10:29:00,
2013-04-03 06:34:00,26.7,17.8,30.30,NW,313,0.0,0.0,68,0.00,,,0.00,WX3IN1Plus v1.30,2013-04-03 10:34:00,
2013-04-03 06:39:00,26.7,17.8,30.30,NW,313,0.0,0.0,68,0.00,,,0.00,WX3IN1Plus v1.30,2013-04-03 10:39:00,
2013-04-03 06:44:00,26.8,18.0,30.30,NW,313,0.0,0.0,68,0.00,,,0.00,WX3IN1Plus v1.30,2013-04-03 10:44:00,
2013-04-03 06:49:00,26.9,18.0,30.30,NW,313,0.0,0.0,68,0.00,,,0.00,WX3IN1Plus v1.30,2013-04-03 10:49:00,
2013-04-03 06:54:00,26.9,18.0,30.30,NW,313,0.0,0.0,68,0.00,,,0.00,WX3IN1Plus v1.30,2013-04-03 10:54:00,
2013-04-03 06:59:00,27.0,18.2,30.30,NW,313,0.0,0.0,68,0.00,,,0.00,WX3IN1Plus v1.30,2013-04-03 10:59:00,
2013-04-03 07:04:00,26.9,18.0,30.31,NW,313,0.0,0.0,68,0.00,,,0.00,WX3IN1Plus v1.30,2013-04-03 11:04:00,
2013-04-03 07:09:00,27.0,18.2,30.31,NW,313,0.0,0.0,68,0.00,,,0.00,WX3IN1Plus v1.30,2013-04-03 11:09:00,
2013-04-03 07:14:00,27.0,18.2,30.31,NW,313,0.0,0.0,68,0.00,,,0.00,WX3IN1Plus v1.30,2013-04-03 11:14:00,
2013-04-03 07:19:00,26.6,17.5,30.31,NW,313,0.0,0.0,68,0.00,,,0.00,WX3IN1Plus v1.30,2013-04-03 11:19:00,
2013-04-03 07:24:00,26.9,18.0,30.31,NW,313,0.0,0.0,68,0.00,,,0.00,WX3IN1Plus v1.30,2013-04-03 11:24:00,
2013-04-03 07:29:00,27.0,18.0,30.32,SW,234,0.0,0.9,67,0.00,,,0.00,WX3IN1Plus v1.30,2013-04-03 11:29:00,
2013-04-03 07:34:00,27.3,18.2,30.31,SW,234,0.0,0.0,68,0.00,,,0.00,WX3IN1Plus v1.30,2013-04-03 11:34:00,
2013-04-03 07:39:00,27.6,18.7,30.32,SW,234,0.0,0.0,68,0.00,,,0.00,WX3IN1Plus v1.30,2013-04-03 11:39:00,
2013-04-03 07:44:00,27.7,18.9,30.31,SW,234,0.0,0.0,68,0.00,,,0.00,WX3IN1Plus v1.30,2013-04-03 11:44:00,
2013-04-03 07:49:00,28.3,18.7,30.31,WNW,302,0.0,2.3,66,0.00,,,0.00,WX3IN1Plus v1.30,2013-04-03 11:49:00,
2013-04-03 07:54:00,29.2,19.4,30.32,WSW,239,0.0,1.8,65,0.00,,,0.00,WX3IN1Plus v1.30,2013-04-03 11:54:00,
2013-04-03 07:59:00,30.2,19.6,30.32,West,278,2.1,3.2,64,0.00,,,0.00,WX3IN1Plus v1.30,2013-04-03 11:59:00,
2013-04-03 08:04:00,31.3,20.0,30.32,WNW,295,0.0,2.9,62,0.00,,,0.00,WX3IN1Plus v1.30,2013-04-03 12:04:00,
2013-04-03 08:09:00,32.1,19.4,30.31,West,277,2.6,4.2,59,0.00,,,0.00,WX3IN1Plus v1.30,2013-04-03 12:09:00,
2013-04-03 08:14:00,33.0,20.0,30.32,NNW,327,0.8,4.7,59,0.00,,,0.00,WX3IN1Plus v1.30,2013-04-03 12:14:00,
2013-04-03 08:19:00,33.9,20.3,30.32,West,268,3.1,5.3,57,0.00,,,0.00,WX3IN1Plus v1.30,2013-04-03 12:19:00,
2013-04-03 08:24:00,34.4,20.3,30.32,West,277,0.0,5.2,56,0.00,,,0.00,WX3IN1Plus v1.30,2013-04-03 12:24:00,
2013-04-03 08:29:00,35.1,20.5,30.31,WSW,255,4.2,5.1,55,0.00,,,0.00,WX3IN1Plus v1.30,2013-04-03 12:29:00,
2013-04-03 08:34:00,35.4,20.5,30.31,West,262,0.0,4.9,55,0.00,,,0.00,WX3IN1Plus v1.30,2013-04-03 12:34:00,
2013-04-03 08:39:00,36.2,20.7,30.31,WSW,244,0.0,4.9,53,0.00,,,0.00,WX3IN1Plus v1.30,2013-04-03 12:39:00,
2013-04-03 08:44:00,36.5,21.1,30.31,WSW,248,0.0,4.6,53,0.00,,,0.00,WX3IN1Plus v1.30,2013-04-03 12:44:00,
2013-04-03 08:49:00,36.9,21.1,30.31,South,187,0.0,3.2,52,0.00,,,0.00,WX3IN1Plus v1.30,2013-04-03 12:49:00,
2013-04-03 08:54:00,37.5,20.5,30.31,NW,317,0.8,6.1,50,0.00,,,0.00,WX3IN1Plus v1.30,2013-04-03 12:54:00,
2013-04-03 08:59:00,37.9,20.7,30.31,NW,317,2.5,5.6,50,0.00,,,0.00,WX3IN1Plus v1.30,2013-04-03 12:59:00,
2013-04-03 09:04:00,38.6,21.1,30.31,NNW,348,2.9,8.0,49,0.00,,,0.00,WX3IN1Plus v1.30,2013-04-03 13:04:00,
2013-04-03 09:09:00,39.2,21.8,30.31,NW,310,4.6,4.6,49,0.00,,,0.00,WX3IN1Plus v1.30,2013-04-03 13:09:00,
2013-04-03 09:14:00,39.7,21.4,30.31,WSW,246,0.3,6.4,48,0.00,,,0.00,WX3IN1Plus v1.30,2013-04-03 13:14:00,
2013-04-03 09:19:00,40.0,22.0,30.31,NW,306,0.0,3.1,48,0.00,,,0.00,WX3IN1Plus v1.30,2013-04-03 13:19:00,
2013-04-03 09:24:00,40.5,21.2,30.31,ESE,109,1.3,6.7,46,0.00,,,0.00,WX3IN1Plus v1.30,2013-04-03 13:24:00,
2013-04-03 09:29:00,41.0,20.7,30.31,NNW,344,2.7,10.6,44,0.00,,,0.00,WX3IN1Plus v1.30,2013-04-03 13:29:00,
2013-04-03 09:34:00,41.6,21.2,30.31,North,1,1.7,7.7,44,0.00,,,0.00,WX3IN1Plus v1.30,2013-04-03 13:34:00,
2013-04-03 09:39:00,41.9,20.5,30.32,NNW,336,3.4,13.6,42,0.00,,,0.00,WX3IN1Plus v1.30,2013-04-03 13:39:00,
2013-04-03 09:44:00,42.2,20.5,30.32,West,268,3.8,11.4,42,0.00,,,0.00,WX3IN1Plus v1.30,2013-04-03 13:44:00,
2013-04-03 09:49:00,42.3,20.3,30.32,NW,309,0.7,10.9,41,0.00,,,0.00,WX3IN1Plus v1.30,2013-04-03 13:49:00,
2013-04-03 09:54:00,42.7,20.5,30.32,NNW,347,2.0,10.1,41,0.00,,,0.00,WX3IN1Plus v1.30,2013-04-03 13:54:00,
2013-04-03 09:59:00,42.6,19.4,30.32,NNW,327,5.8,11.3,39,0.00,,,0.00,WX3IN1Plus v1.30,2013-04-03 13:59:00,
2013-04-03 10:04:00,42.6,19.8,30.32,West,268,8.4,12.6,40,0.00,,,0.00,WX3IN1Plus v1.30,2013-04-03 14:04:00,
2013-04-03 10:09:00,42.9,20.0,30.32,NNW,333,7.8,9.6,40,0.00,,,0.00,WX3IN1Plus v1.30,2013-04-03 14:09:00,
2013-04-03 10:14:00,43.2,20.3,30.32,West,271,6.6,10.4,40,0.00,,,0.00,WX3IN1Plus v1.30,2013-04-03 14:14:00,
2013-04-03 10:19:00,43.5,20.5,30.32,North,0,5.1,14.9,40,0.00,,,0.00,WX3IN1Plus v1.30,2013-04-03 14:19:00,
2013-04-03 10:24:00,43.7,20.7,30.33,North,5,3.6,6.8,40,0.00,,,0.00,WX3IN1Plus v1.30,2013-04-03 14:24:00,
2013-04-03 10:29:00,43.9,19.8,30.33,SSW,209,1.3,11.0,38,0.00,,,0.00,WX3IN1Plus v1.30,2013-04-03 14:29:00,
2013-04-03 10:34:00,44.0,19.4,30.33,NW,313,2.9,9.2,37,0.00,,,0.00,WX3IN1Plus v1.30,2013-04-03 14:34:00,
2013-04-03 10:40:00,44.1,18.9,30.33,NNE,16,8.2,13.9,36,0.00,,,0.00,WX3IN1Plus v1.30,2013-04-03 14:40:00,
2013-04-03 10:45:00,44.3,19.8,30.33,NNW,341,2.5,13.7,37,0.00,,,0.00,WX3IN1Plus v1.30,2013-04-03 14:45:00,
2013-04-03 10:50:00,44.4,18.4,30.33,NW,320,7.3,13.4,35,0.00,,,0.00,WX3IN1Plus v1.30,2013-04-03 14:50:00,
2013-04-03 10:55:00,44.5,17.8,30.33,NNE,14,6.2,14.6,34,0.00,,,0.00,WX3IN1Plus v1.30,2013-04-03 14:55:00,
2013-04-03 11:00:00,44.5,19.1,30.33,WNW,295,4.4,17.0,36,0.00,,,0.00,WX3IN1Plus v1.30,2013-04-03 15:00:00,
2013-04-03 11:05:00,44.9,18.9,30.33,West,277,0.9,11.5,35,0.00,,,0.00,WX3IN1Plus v1.30,2013-04-03 15:05:00,
2013-04-03 11:10:00,45.3,19.1,30.33,SW,232,0.0,14.2,35,0.00,,,0.00,WX3IN1Plus v1.30,2013-04-03 15:10:00,
2013-04-03 11:15:00,45.5,19.4,30.33,WNW,292,7.0,8.8,35,0.00,,,0.00,WX3IN1Plus v1.30,2013-04-03 15:15:00,
2013-04-03 11:20:00,45.5,18.7,30.33,West,271,5.4,13.7,34,0.00,,,0.00,WX3IN1Plus v1.30,2013-04-03 15:20:00,
2013-04-03 11:25:00,45.3,19.1,30.33,North,358,7.3,14.6,35,0.00,,,0.00,WX3IN1Plus v1.30,2013-04-03 15:25:00,
2013-04-03 11:30:00,45.7,18.9,30.33,North,2,6.9,12.2,34,0.00,,,0.00,WX3IN1Plus v1.30,2013-04-03 15:30:00,
2013-04-03 11:35:00,45.7,18.2,30.33,NE,39,5.9,18.5,33,0.00,,,0.00,WX3IN1Plus v1.30,2013-04-03 15:35:00,
2013-04-03 11:40:00,46.2,19.1,30.33,NNW,329,5.8,13.6,34,0.00,,,0.00,WX3IN1Plus v1.30,2013-04-03 15:40:00,
2013-04-03 11:45:00,46.0,18.4,30.33,NNW,334,5.4,15.7,33,0.00,,,0.00,WX3IN1Plus v1.30,2013-04-03 15:45:00,
2013-04-03 11:50:00,46.2,19.1,30.32,North,352,6.3,12.1,34,0.00,,,0.00,WX3IN1Plus v1.30,2013-04-03 15:50:00,
2013-04-03 11:55:00,46.1,18.4,30.32,West,268,1.6,14.2,33,0.00,,,0.00,WX3IN1Plus v1.30,2013-04-03 15:55:00,
2013-04-03 12:00:00,46.2,19.8,30.31,NNW,338,3.0,8.5,35,0.00,,,0.00,WX3IN1Plus v1.30,2013-04-03 16:00:00,
2013-04-03 12:05:00,46.8,19.1,30.31,NNW,340,12.3,17.6,33,0.00,,,0.00,WX3IN1Plus v1.30,2013-04-03 16:05:00,
2013-04-03 12:10:00,46.9,17.8,30.31,ENE,61,7.1,13.8,31,0.00,,,0.00,WX3IN1Plus v1.30,2013-04-03 16:10:00,
2013-04-03 12:15:00,47.0,18.0,30.31,North,2,6.4,14.7,31,0.00,,,0.00,WX3IN1Plus v1.30,2013-04-03 16:15:00,
2013-04-03 12:20:00,47.1,18.0,30.31,NW,313,4.7,15.7,31,0.00,,,0.00,WX3IN1Plus v1.30,2013-04-03 16:20:00,
2013-04-03 12:25:00,47.0,16.4,30.31,NNW,331,13.1,15.7,29,0.00,,,0.00,WX3IN1Plus v1.30,2013-04-03 16:25:00,
2013-04-03 12:30:00,46.9,17.1,30.31,WNW,285,8.3,18.2,30,0.00,,,0.00,WX3IN1Plus v1.30,2013-04-03 16:30:00,
2013-04-03 12:35:00,46.8,16.2,30.31,WSW,251,0.0,14.6,29,0.00,,,0.00,WX3IN1Plus v1.30,2013-04-03 16:35:00,
2013-04-03 12:40:00,47.3,17.5,30.31,NW,312,8.1,14.5,30,0.00,,,0.00,WX3IN1Plus v1.30,2013-04-03 16:40:00,
2013-04-03 12:45:00,47.4,17.5,30.31,NE,42,11.4,14.7,30,0.00,,,0.00,WX3IN1Plus v1.30,2013-04-03 16:45:00,
2013-04-03 12:50:00,47.4,17.5,30.31,NW,326,10.0,16.9,30,0.00,,,0.00,WX3IN1Plus v1.30,2013-04-03 16:50:00,
2013-04-03 12:55:00,47.4,16.6,30.31,WNW,299,3.1,16.1,29,0.00,,,0.00,WX3IN1Plus v1.30,2013-04-03 16:55:00,
2013-04-03 13:00:00,47.6,17.8,30.31,NW,320,6.7,16.9,30,0.00,,,0.00,WX3IN1Plus v1.30,2013-04-03 17:00:00,
2013-04-03 13:05:00,47.7,18.4,30.30,NNW,344,1.3,12.8,31,0.00,,,0.00,WX3IN1Plus v1.30,2013-04-03 17:05:00,
2013-04-03 13:10:00,48.2,18.2,30.29,NNE,19,5.5,15.8,30,0.00,,,0.00,WX3IN1Plus v1.30,2013-04-03 17:10:00,
2013-04-03 13:15:00,48.2,18.9,30.29,North,358,5.9,13.3,31,0.00,,,0.00,WX3IN1Plus v1.30,2013-04-03 17:15:00,
2013-04-03 13:20:00,48.2,18.9,30.29,NE,43,9.1,18.7,31,0.00,,,0.00,WX3IN1Plus v1.30,2013-04-03 17:20:00,
2013-04-03 13:25:00,48.7,18.7,30.29,North,358,4.7,13.9,30,0.00,,,0.00,WX3IN1Plus v1.30,2013-04-03 17:25:00,
2013-04-03 13:30:00,48.6,19.4,30.29,WSW,255,5.5,12.9,31,0.00,,,0.00,WX3IN1Plus v1.30,2013-04-03 17:30:00,
2013-04-03 13:36:00,49.3,18.4,30.29,North,5,4.9,12.9,29,0.00,,,0.00,WX3IN1Plus v1.30,2013-04-03 17:36:00,
2013-04-03 13:41:00,48.9,18.0,30.28,NNW,330,3.6,12.8,29,0.00,,,0.00,WX3IN1Plus v1.30,2013-04-03 17:41:00,
2013-04-03 13:46:00,49.3,17.8,30.28,North,5,12.0,18.0,28,0.00,,,0.00,WX3IN1Plus v1.30,2013-04-03 17:46:00,
2013-04-03 13:51:00,49.2,18.2,30.28,North,358,1.7,15.8,29,0.00,,,0.00,WX3IN1Plus v1.30,2013-04-03 17:51:00,
2013-04-03 13:56:00,49.3,18.4,30.28,NNE,14,3.6,14.1,29,0.00,,,0.00,WX3IN1Plus v1.30,2013-04-03 17:56:00,
2013-04-03 14:02:00,49.4,18.4,30.28,NNW,340,2.7,13.4,29,0.00,,,0.00,WX3IN1Plus v1.30,2013-04-03 18:02:00,
2013-04-03 14:07:00,49.6,17.8,30.28,NNW,344,6.7,13.6,28,0.00,,,0.00,WX3IN1Plus v1.30,2013-04-03 18:07:00,
2013-04-03 14:12:00,49.7,17.1,30.27,NNW,333,10.7,14.9,27,0.00,,,0.00,WX3IN1Plus v1.30,2013-04-03 18:12:00,
2013-04-03 14:17:00,49.6,16.7,30.28,North,358,3.2,18.7,27,0.00,,,0.00,WX3IN1Plus v1.30,2013-04-03 18:17:00,
2013-04-03 14:22:00,49.4,18.4,30.27,NNW,329,10.5,15.2,29,0.00,,,0.00,WX3IN1Plus v1.30,2013-04-03 18:22:00,
2013-04-03 14:27:00,49.5,16.7,30.27,NW,324,4.2,16.7,27,0.00,,,0.00,WX3IN1Plus v1.30,2013-04-03 18:27:00,
2013-04-03 14:32:00,49.3,17.8,30.27,NW,316,4.2,10.8,28,0.00,,,0.00,WX3IN1Plus v1.30,2013-04-03 18:32:00,
2013-04-03 14:37:00,49.7,17.1,30.27,NW,326,10.5,17.4,27,0.00,,,0.00,WX3IN1Plus v1.30,2013-04-03 18:37:00,
2013-04-03 14:42:00,49.9,17.3,30.28,NNW,327,4.7,17.1,27,0.00,,,0.00,WX3IN1Plus v1.30,2013-04-03 18:42:00,
2013-04-03 14:47:00,49.5,16.7,30.28,NNW,331,6.5,21.0,27,0.00,,,0.00,WX3IN1Plus v1.30,2013-04-03 18:47:00,
2013-04-03 14:52:00,49.2,17.5,30.28,NNW,340,13.5,13.5,28,0.00,,,0.00,WX3IN1Plus v1.30,2013-04-03 18:52:00,
2013-04-03 14:57:00,49.6,18.4,30.27,NW,326,4.9,15.5,29,0.00,,,0.00,WX3IN1Plus v1.30,2013-04-03 18:57:00,
2013-04-03 15:02:00,49.6,19.4,30.27,North,354,8.2,12.3,30,0.00,,,0.00,WX3IN1Plus v1.30,2013-04-03 19:02:00,
2013-04-03 15:07:00,50.1,18.2,30.27,NNW,344,3.4,16.5,28,0.00,,,0.00,WX3IN1Plus v1.30,2013-04-03 19:07:00,
2013-04-03 15:12:00,49.8,18.0,30.27,WSW,243,1.2,11.6,28,0.00,,,0.00,WX3IN1Plus v1.30,2013-04-03 19:12:00,
2013-04-03 15:17:00,49.8,17.1,30.28,NW,322,9.8,16.0,27,0.00,,,0.00,WX3IN1Plus v1.30,2013-04-03 19:17:00,
2013-04-03 15:22:00,50.0,17.3,30.27,WNW,288,6.1,15.5,27,0.00,,,0.00,WX3IN1Plus v1.30,2013-04-03 19:22:00,
2013-04-03 15:27:00,50.3,16.6,30.27,North,352,8.5,15.5,26,0.00,,,0.00,WX3IN1Plus v1.30,2013-04-03 19:27:00,
2013-04-03 15:32:00,50.0,16.4,30.28,North,355,7.0,21.1,26,0.00,,,0.00,WX3IN1Plus v1.30,2013-04-03 19:32:00,
2013-04-03 15:37:00,49.9,16.4,30.28,NW,322,9.4,13.8,26,0.00,,,0.00,WX3IN1Plus v1.30,2013-04-03 19:37:00,
2013-04-03 15:42:00,49.7,17.1,30.28,NNE,33,6.4,14.2,27,0.00,,,0.00,WX3IN1Plus v1.30,2013-04-03 19:42:00,
2013-04-03 15:47:00,49.8,17.1,30.28,NNE,32,10.5,13.9,27,0.00,,,0.00,WX3IN1Plus v1.30,2013-04-03 19:47:00,
2013-04-03 15:52:00,50.1,17.3,30.28,NNW,330,11.3,16.1,27,0.00,,,0.00,WX3IN1Plus v1.30,2013-04-03 19:52:00,
2013-04-03 15:57:00,50.3,17.5,30.28,NW,316,5.8,11.8,27,0.00,,,0.00,WX3IN1Plus v1.30,2013-04-03 19:57:00,
2013-04-03 16:02:00,50.4,16.7,30.27,ESE,109,0.0,21.7,26,0.00,,,0.00,WX3IN1Plus v1.30,2013-04-03 20:02:00,
2013-04-03 16:07:00,50.7,16.7,30.28,NNW,348,7.5,14.9,26,0.00,,,0.00,WX3IN1Plus v1.30,2013-04-03 20:07:00,
2013-04-03 16:12:00,50.8,17.1,30.27,NNE,30,10.7,15.9,26,0.00,,,0.00,WX3IN1Plus v1.30,2013-04-03 20:12:00,
2013-04-03 16:17:00,51.3,17.5,30.28,NE,42,7.8,13.7,26,0.00,,,0.00,WX3IN1Plus v1.30,2013-04-03 20:17:00,
2013-04-03 16:22:00,51.1,16.4,30.28,NW,305,9.4,18.7,25,0.00,,,0.00,WX3IN1Plus v1.30,2013-04-03 20:22:00,
2013-04-03 16:27:00,50.2,15.7,30.28,NW,306,8.8,16.8,25,0.00,,,0.00,WX3IN1Plus v1.30,2013-04-03 20:27:00,
2013-04-03 16:32:00,49.6,15.8,30.28,NE,56,13.2,17.2,26,0.00,,,0.00,WX3IN1Plus v1.30,2013-04-03 20:32:00,
2013-04-03 16:37:00,49.1,16.6,30.29,ENE,74,4.3,18.7,27,0.00,,,0.00,WX3IN1Plus v1.30,2013-04-03 20:37:00,
2013-04-03 16:43:00,48.9,15.5,30.29,East,82,6.2,12.5,26,0.00,,,0.00,WX3IN1Plus v1.30,2013-04-03 20:43:00,
2013-04-03 16:48:00,49.0,16.4,30.29,NNE,12,6.7,14.8,27,0.00,,,0.00,WX3IN1Plus v1.30,2013-04-03 20:48:00,
2013-04-03 16:53:00,49.8,16.2,30.30,NNE,18,8.0,14.1,26,0.00,,,0.00,WX3IN1Plus v1.30,2013-04-03 20:53:00,
2013-04-03 16:58:00,49.7,15.1,30.31,North,2,6.0,19.0,25,0.00,,,0.00,WX3IN1Plus v1.30,2013-04-03 20:58:00,
2013-04-03 17:03:00,49.1,15.7,30.31,NE,35,8.7,16.4,26,0.00,,,0.00,WX3IN1Plus v1.30,2013-04-03 21:03:00,
2013-04-03 17:08:00,49.2,14.8,30.31,NW,315,4.7,13.3,25,0.00,,,0.00,WX3IN1Plus v1.30,2013-04-03 21:08:00,
2013-04-03 17:13:00,48.9,15.5,30.31,North,355,5.1,14.6,26,0.00,,,0.00,WX3IN1Plus v1.30,2013-04-03 21:13:00,
2013-04-03 17:18:00,48.7,14.2,30.32,North,358,9.0,18.3,25,0.00,,,0.00,WX3IN1Plus v1.30,2013-04-03 21:18:00,
2013-04-03 17:23:00,49.2,13.9,30.32,NNE,16,6.0,22.0,24,0.00,,,0.00,WX3IN1Plus v1.30,2013-04-03 21:23:00,
2013-04-03 17:28:00,49.5,14.9,30.32,NNW,347,12.6,15.1,25,0.00,,,0.00,WX3IN1Plus v1.30,2013-04-03 21:28:00,
2013-04-03 17:33:00,49.6,14.0,30.32,North,9,9.0,17.9,24,0.00,,,0.00,WX3IN1Plus v1.30,2013-04-03 21:33:00,
2013-04-03 17:38:00,49.3,14.9,30.33,NNE,12,8.8,20.9,25,0.00,,,0.00,WX3IN1Plus v1.30,2013-04-03 21:38:00,
2013-04-03 17:43:00,48.8,14.6,30.33,NNE,16,7.9,19.6,25,0.00,,,0.00,WX3IN1Plus v1.30,2013-04-03 21:43:00,
2013-04-03 17:48:00,48.3,13.9,30.33,NNE,33,4.4,18.0,25,0.00,,,0.00,WX3IN1Plus v1.30,2013-04-03 21:48:00,
2013-04-03 17:53:00,47.7,14.2,30.33,NE,35,3.6,18.0,26,0.00,,,0.00,WX3IN1Plus v1.30,2013-04-03 21:53:00,
2013-04-03 17:58:00,47.6,13.3,30.33,NNE,21,11.1,22.0,25,0.00,,,0.00,WX3IN1Plus v1.30,2013-04-03 21:58:00,
2013-04-03 18:03:00,47.4,13.1,30.33,NNE,18,8.0,22.3,25,0.00,,,0.00,WX3IN1Plus v1.30,2013-04-03 22:03:00,
2013-04-03 18:08:00,47.3,13.1,30.34,East,92,6.3,18.4,25,0.00,,,0.00,WX3IN1Plus v1.30,2013-04-03 22:08:00,
2013-04-03 18:13:00,47.0,13.0,30.34,North,358,8.5,21.0,25,0.00,,,0.00,WX3IN1Plus v1.30,2013-04-03 22:13:00,
2013-04-03 18:18:00,46.7,13.3,30.35,North,358,7.8,20.5,26,0.00,,,0.00,WX3IN1Plus v1.30,2013-04-03 22:18:00,
2013-04-03 18:23:00,46.4,13.3,30.35,NW,323,10.1,15.0,26,0.00,,,0.00,WX3IN1Plus v1.30,2013-04-03 22:23:00,
2013-04-03 18:28:00,46.2,13.0,30.36,North,9,7.7,15.4,26,0.00,,,0.00,WX3IN1Plus v1.30,2013-04-03 22:28:00,
2013-04-03 18:33:00,46.1,13.0,30.36,North,8,7.8,16.7,26,0.00,,,0.00,WX3IN1Plus v1.30,2013-04-03 22:33:00,
2013-04-03 18:38:00,45.8,12.8,30.36,NNE,18,7.0,18.0,26,0.00,,,0.00,WX3IN1Plus v1.30,2013-04-03 22:38:00,
2013-04-03 18:43:00,45.5,12.4,30.37,NNW,331,8.4,20.6,26,0.00,,,0.00,WX3IN1Plus v1.30,2013-04-03 22:43:00,
2013-04-03 18:48:00,45.3,12.2,30.37,NNE,14,11.0,17.1,26,0.00,,,0.00,WX3IN1Plus v1.30,2013-04-03 22:48:00,
2013-04-03 18:53:00,45.1,12.1,30.37,NNE,16,11.3,14.0,26,0.00,,,0.00,WX3IN1Plus v1.30,2013-04-03 22:53:00,
2013-04-03 18:58:00,44.9,12.1,30.37,North,8,8.5,16.6,26,0.00,,,0.00,WX3IN1Plus v1.30,2013-04-03 22:58:00,
2013-04-03 19:03:00,44.8,12.1,30.38,NNE,32,5.7,17.4,26,0.00,,,0.00,WX3IN1Plus v1.30,2013-04-03 23:03:00,
2013-04-03 19:08:00,44.7,12.8,30.38,NNW,348,6.8,15.4,27,0.00,,,0.00,WX3IN1Plus v1.30,2013-04-03 23:08:00,
2013-04-03 19:13:00,44.5,12.4,30.38,NNE,22,6.1,10.8,27,0.00,,,0.00,WX3IN1Plus v1.30,2013-04-03 23:13:00,
2013-04-03 19:18:00,44.2,12.2,30.38,NE,37,9.3,19.7,27,0.00,,,0.00,WX3IN1Plus v1.30,2013-04-03 23:18:00,
2013-04-03 19:23:00,44.0,13.0,30.38,NNW,337,8.1,15.4,28,0.00,,,0.00,WX3IN1Plus v1.30,2013-04-03 23:23:00,
2013-04-03 19:28:00,43.8,13.3,30.38,ENE,64,7.2,13.2,29,0.00,,,0.00,WX3IN1Plus v1.30,2013-04-03 23:28:00,
2013-04-03 19:33:00,43.7,13.3,30.38,North,9,4.5,14.0,29,0.00,,,0.00,WX3IN1Plus v1.30,2013-04-03 23:33:00,
2013-04-03 19:38:00,43.4,13.1,30.38,NNE,25,6.9,10.5,29,0.00,,,0.00,WX3IN1Plus v1.30,2013-04-03 23:38:00,
2013-04-03 19:43:00,43.2,13.0,30.38,North,9,4.2,22.8,29,0.00,,,0.00,WX3IN1Plus v1.30,2013-04-03 23:43:00,
2013-04-03 19:48:00,43.0,13.0,30.39,NE,36,3.7,11.6,29,0.00,,,0.00,WX3IN1Plus v1.30,2013-04-03 23:48:00,
2013-04-03 19:53:00,42.8,12.8,30.39,NNW,337,6.0,14.1,29,0.00,,,0.00,WX3IN1Plus v1.30,2013-04-03 23:53:00,
2013-04-03 19:59:00,42.6,12.4,30.39,North,1,4.4,13.6,29,0.00,,,0.00,WX3IN1Plus v1.30,2013-04-03 23:59:00,
2013-04-03 20:04:00,42.5,13.3,30.39,North,5,6.0,9.4,30,0.00,,,0.00,WX3IN1Plus v1.30,2013-04-04 00:04:00,
2013-04-03 20:09:00,42.5,13.3,30.39,ENE,66,6.1,14.9,30,0.00,,,0.00,WX3IN1Plus v1.30,2013-04-04 00:09:00,
2013-04-03 20:14:00,42.3,13.9,30.40,East,84,6.9,13.6,31,0.00,,,0.00,WX3IN1Plus v1.30,2013-04-04 00:14:00,
2013-04-03 20:19:00,42.2,14.2,30.40,NE,42,7.1,15.9,32,0.00,,,0.00,WX3IN1Plus v1.30,2013-04-04 00:19:00,
2013-04-03 20:24:00,41.9,14.2,30.40,North,5,7.5,15.9,32,0.00,,,0.00,WX3IN1Plus v1.30,2013-04-04 00:24:00,
2013-04-03 20:29:00,41.8,14.8,30.40,NNW,348,6.8,11.9,33,0.00,,,0.00,WX3IN1Plus v1.30,2013-04-04 00:29:00,
2013-04-03 20:34:00,41.6,15.1,30.40,NNE,18,3.9,14.7,34,0.00,,,0.00,WX3IN1Plus v1.30,2013-04-04 00:34:00,
2013-04-03 20:39:00,41.5,15.7,30.41,NE,47,7.1,12.2,35,0.00,,,0.00,WX3IN1Plus v1.30,2013-04-04 00:39:00,
2013-04-03 20:44:00,41.4,17.1,30.41,North,355,7.2,15.4,37,0.00,,,0.00,WX3IN1Plus v1.30,2013-04-04 00:44:00,
2013-04-03 20:49:00,41.0,18.0,30.41,ENE,57,8.4,15.9,39,0.00,,,0.00,WX3IN1Plus v1.30,2013-04-04 00:49:00,
2013-04-03 20:54:00,40.4,17.8,30.41,North,2,8.7,14.0,40,0.00,,,0.00,WX3IN1Plus v1.30,2013-04-04 00:54:00,
2013-04-03 21:00:00,40.1,18.4,30.41,NNE,26,4.5,15.2,41,0.00,,,0.00,WX3IN1Plus v1.30,2013-04-04 01:00:00,
2013-04-03 21:05:00,40.0,18.7,30.41,NNW,333,4.8,12.5,42,0.00,,,0.00,WX3IN1Plus v1.30,2013-04-04 01:05:00,
2013-04-03 21:10:00,39.7,18.2,30.41,North,2,6.5,10.8,42,0.00,,,0.00,WX3IN1Plus v1.30,2013-04-04 01:10:00,
2013-04-03 21:15:00,39.6,18.9,30.42,North,7,6.4,10.5,43,0.00,,,0.00,WX3IN1Plus v1.30,2013-04-04 01:15:00,
2013-04-03 21:20:00,39.6,18.9,30.42,North,7,0.0,6.5,43,0.00,,,0.00,WX3IN1Plus v1.30,2013-04-04 01:20:00,
2013-04-03 21:25:00,39.3,19.1,30.42,North,358,2.4,8.3,44,0.00,,,0.00,WX3IN1Plus v1.30,2013-04-04 01:25:00,
2013-04-03 21:30:00,39.0,18.9,30.42,NNE,19,0.0,5.0,44,0.00,,,0.00,WX3IN1Plus v1.30,2013-04-04 01:30:00,
2013-04-03 21:35:00,38.9,18.9,30.43,North,7,0.0,5.0,44,0.00,,,0.00,WX3IN1Plus v1.30,2013-04-04 01:35:00,
2013-04-03 21:40:00,38.6,18.9,30.43,North,7,0.0,0.0,45,0.00,,,0.00,WX3IN1Plus v1.30,2013-04-04 01:40:00,
2013-04-03 21:45:00,38.3,18.9,30.43,North,2,0.0,7.8,45,0.00,,,0.00,WX3IN1Plus v1.30,2013-04-04 01:45:00,
2013-04-03 21:50:00,38.2,18.7,30.44,WNW,303,0.0,4.1,45,0.00,,,0.00,WX3IN1Plus v1.30,2013-04-04 01:50:00,
2013-04-03 21:55:00,38.2,18.7,30.43,NNW,343,0.0,1.3,45,0.00,,,0.00,WX3IN1Plus v1.30,2013-04-04 01:55:00,
2013-04-03 22:00:00,37.8,18.7,30.43,North,358,1.8,5.2,46,0.00,,,0.00,WX3IN1Plus v1.30,2013-04-04 02:00:00,
2013-04-03 22:05:00,37.7,18.7,30.43,NE,49,2.4,9.5,46,0.00,,,0.00,WX3IN1Plus v1.30,2013-04-04 02:05:00,
2013-04-03 22:10:00,37.6,18.2,30.44,NNE,23,6.4,11.1,45,0.00,,,0.00,WX3IN1Plus v1.30,2013-04-04 02:10:00,
2013-04-03 22:15:00,37.6,18.2,30.44,NNE,21,6.4,10.0,45,0.00,,,0.00,WX3IN1Plus v1.30,2013-04-04 02:15:00,
2013-04-03 22:20:00,37.7,18.7,30.44,North,8,2.8,8.3,46,0.00,,,0.00,WX3IN1Plus v1.30,2013-04-04 02:20:00,
2013-04-03 22:25:00,37.6,18.7,30.44,NNE,12,1.3,10.3,46,0.00,,,0.00,WX3IN1Plus v1.30,2013-04-04 02:25:00,
2013-04-03 22:30:00,37.5,18.4,30.43,NW,312,1.3,6.0,46,0.00,,,0.00,WX3IN1Plus v1.30,2013-04-04 02:30:00,
2013-04-03 22:35:00,37.3,18.7,30.44,North,1,0.0,5.7,47,0.00,,,0.00,WX3IN1Plus v1.30,2013-04-04 02:35:00,
2013-04-03 22:40:00,37.1,19.4,30.44,NNW,337,4.9,9.2,48,0.00,,,0.00,WX3IN1Plus v1.30,2013-04-04 02:40:00,
2013-04-03 22:45:00,37.0,19.1,30.44,ENE,70,0.0,6.5,48,0.00,,,0.00,WX3IN1Plus v1.30,2013-04-04 02:45:00,
2013-04-03 22:50:00,36.8,18.9,30.44,ENE,70,0.0,0.0,48,0.00,,,0.00,WX3IN1Plus v1.30,2013-04-04 02:50:00,
2013-04-03 22:55:00,36.7,18.9,30.44,ENE,70,0.0,0.0,48,0.00,,,0.00,WX3IN1Plus v1.30,2013-04-04 02:55:00,
2013-04-03 23:00:00,36.5,18.7,30.44,NNE,14,0.0,3.1,48,0.00,,,0.00,WX3IN1Plus v1.30,2013-04-04 03:00:00,
2013-04-03 23:05:00,36.4,19.1,30.44,North,11,0.0,5.2,49,0.00,,,0.00,WX3IN1Plus v1.30,2013-04-04 03:05:00,
2013-04-03 23:10:00,36.0,18.7,30.43,North,11,0.0,0.0,49,0.00,,,0.00,WX3IN1Plus v1.30,2013-04-04 03:10:00,
2013-04-03 23:15:00,35.9,18.7,30.43,North,0,0.0,2.7,49,0.00,,,0.00,WX3IN1Plus v1.30,2013-04-04 03:15:00,
2013-04-03 23:20:00,35.8,19.1,30.43,North,0,0.0,0.0,50,0.00,,,0.00,WX3IN1Plus v1.30,2013-04-04 03:20:00,
2013-04-03 23:25:00,35.6,18.9,30.44,ENE,64,0.0,3.1,50,0.00,,,0.00,WX3IN1Plus v1.30,2013-04-04 03:25:00,
2013-04-03 23:30:00,35.3,18.4,30.44,ENE,64,0.0,0.0,50,0.00,,,0.00,WX3IN1Plus v1.30,2013-04-04 03:30:00,
2013-04-03 23:35:00,35.1,18.9,30.44,ENE,64,0.0,0.0,51,0.00,,,0.00,WX3IN1Plus v1.30,2013-04-04 03:35:00,
2013-04-03 23:40:00,34.7,18.4,30.45,ENE,64,0.0,0.0,51,0.00,,,0.00,WX3IN1Plus v1.30,2013-04-04 03:40:00,
2013-04-03 23:45:00,34.6,18.4,30.45,ENE,64,0.0,0.0,51,0.00,,,0.00,WX3IN1Plus v1.30,2013-04-04 03:45:00,
2013-04-03 23:50:00,34.4,18.7,30.45,ENE,64,0.0,0.0,52,0.00,,,0.00,WX3IN1Plus v1.30,2013-04-04 03:50:00,
2013-04-03 23:55:00,34.1,18.7,30.45,ENE,64,0.0,0.0,53,0.00,,,0.00,WX3IN1Plus v1.30,2013-04-04 03:55:00,